Weather in Gorny

Russia / Krasnodar Krai     44°16′50″N   39°16′39″E
temp.,
°C
wind,
m/s
gust,
m/s
humid.,
%
clouds,
%
prec.,
mm/h
press.,
hPa
HPBL,
m
7 may, fri
fri700:00+11ssw117575 0.0 101411
03:00+8ssw22710 0.0 101524
06:00+8ssw23774 0.0 101653
09:00+16ssw48633 0.0 1017921
12:00+19ssw464681 0.0 10171081
15:00+18sw4649100 0.0 1017887
18:00+15sw236828 0.0 1017362
21:00+10se11935 0.0 101915
8 may, sat
sat800:00+9sse11887 0.0 101816
03:00+9sse118099 0.0 101713
06:00+10sse1177100 0.0 101626
09:00+18s1349100 0.0 1015498
12:00+22ssw3532100 0.0 10131210
15:00+22ssw3532100 0.0 1012902
18:00+19se115998 0.0 101119
21:00+16s1153100 0.0 101213
9 may, sun
sun900:00+12ssw3778100 0.1 1013291
03:00+11ssw2495100 0.4 1012115
06:00+12ssw31099100 8.7 1011957
09:00+10nnw4698100 21.1 1013571
12:00+7nne2497100 19.9 1017854
15:00+7ene129494 26.4 1021380
18:00+8n248957 0.6 1022591
21:00+5ene1195100 0.8 102511
10 may, mon
mon1000:00+4ese119411 0.0 102513
03:00+6ese1188100 0.0 102513
06:00+5ne118946 0.1 102512
09:00+10n246140 0.6 10241143
12:00+11nw335691 0.8 10241628
15:00+10w246799 2.1 10231249
18:00+8ssw2390100 1.5 1023141
21:00+6ese1193100 2.8 102417
11 may, tue
tue1100:00+4s3797100 0.0 1022218
03:00+5ssw51195100 0.4 1020983
06:00+5ssw61395100 1.9 10191127
09:00+6ssw71597100 7.2 10181342
12:00+6ssw81696100 3.4 10181415
15:00+7ssw61395100 6.3 10191386
18:00+8ssw51082100 0.8 10191156
21:00+7s2478100 0.8 1019175